When you browse on this site, cookies collect data to enhance your experience and personalize the content and advertising you see.
Visit our Privacy Policy to learn more. By continuing to use the site, you agree to this use of cookies and data.
  • Em Portugal
  • Lista de países
  • Para 7 dias
  • Temperatura da água
  • Mapas de satélite
  • Mapa do tempo
  • Widgets de tempo
  • user-avatar
    Iniciar Sessão

    Previsão horária em Uniechowek

    Hoje, 19 Fevereiro, Terça-feira

    Tempo Temperatura Precipitação Vento Pressão Humidade
    00:00 +3°C° 0 mm 2 m/s 747 mmHg 84%
    01:00 +3°C° 0 mm 2 m/s 747 mmHg 85%
    02:00 +3°C° 0 mm 2 m/s 746 mmHg 86%
    03:00 +3°C° 0 mm 2 m/s 745 mmHg 86%
    04:00 +1°C° 0 mm 3 m/s 745 mmHg 87%
    05:00 +1°C° 0 mm 3 m/s 745 mmHg 87%
    06:00 +1°C° 0 mm 3 m/s 744 mmHg 87%
    07:00 +1°C° 0 mm 3 m/s 744 mmHg 87%
    08:00 +1°C° 0 mm 4 m/s 744 mmHg 84%
    09:00 +3°C° 0 mm 4 m/s 744 mmHg 81%
    10:00 +5°C° 0 mm 5 m/s 744 mmHg 78%
    11:00 +6°C° 0 mm 5 m/s 744 mmHg 76%
    12:00 +7°C° 0 mm 5 m/s 744 mmHg 73%
    13:00 +8°C° 0 mm 5 m/s 744 mmHg 71%
    14:00 +7°C° 0.2 mm 5 m/s 744 mmHg 74%
    15:00 +7°C° 0.2 mm 5 m/s 744 mmHg 78%
    16:00 +6°C° 0.2 mm 5 m/s 744 mmHg 81%
    17:00 +6°C° 0 mm 5 m/s 744 mmHg 81%
    18:00 +5°C° 0 mm 5 m/s 744 mmHg 80%
    19:00 +5°C° 0 mm 4 m/s 744 mmHg 79%
    20:00 +5°C° 0.1 mm 5 m/s 744 mmHg 80%
    21:00 +5°C° 0.1 mm 5 m/s 744 mmHg 81%
    22:00 +3°C° 0.1 mm 5 m/s 744 mmHg 82%
    23:00 +3°C° 0.1 mm 5 m/s 744 mmHg 83%

    Amanhã, 20 Fevereiro, Quarta-feira

    Tempo Temperatura Precipitação Vento Pressão Humidade
    00:00 +3°C° 0.1 mm 5 m/s 745 mmHg 83%
    01:00 +2°C° 0.1 mm 5 m/s 745 mmHg 84%
    02:00 +2°C° 0.1 mm 6 m/s 745 mmHg 83%
    03:00 +2°C° 0.1 mm 6 m/s 745 mmHg 82%
    04:00 +2°C° 0.1 mm 6 m/s 745 mmHg 81%
    05:00 +2°C° 0 mm 6 m/s 745 mmHg 81%
    06:00 +2°C° 0 mm 6 m/s 745 mmHg 80%
    07:00 +2°C° 0 mm 6 m/s 746 mmHg 80%
    08:00 +2°C° 0.1 mm 6 m/s 746 mmHg 78%
    09:00 +2°C° 0.1 mm 6 m/s 747 mmHg 77%
    10:00 +2°C° 0.1 mm 6 m/s 747 mmHg 75%
    11:00 +3°C° 0 mm 6 m/s 748 mmHg 73%
    12:00 +3°C° 0 mm 6 m/s 748 mmHg 71%
    13:00 +4°C° 0 mm 6 m/s 749 mmHg 70%
    14:00 +4°C° 0 mm 6 m/s 749 mmHg 70%
    15:00 +4°C° 0 mm 6 m/s 749 mmHg 70%
    16:00 +5°C° 0 mm 5 m/s 749 mmHg 71%
    17:00 +3°C° 0 mm 5 m/s 750 mmHg 75%
    18:00 +4°C° 0 mm 4 m/s 750 mmHg 80%
    19:00 +3°C° 0 mm 3 m/s 750 mmHg 84%
    20:00 +3°C° 0 mm 3 m/s 750 mmHg 87%
    21:00 +3°C° 0 mm 3 m/s 751 mmHg 89%
    22:00 +3°C° 0 mm 2 m/s 751 mmHg 92%
    23:00 +4°C° 0.2 mm 2 m/s 751 mmHg 93%

    Depois de amanhã, 21 Fevereiro, Quinta-feira

    Tempo Temperatura Precipitação Vento Pressão Humidade
    00:00 +4°C° 0.2 mm 2 m/s 751 mmHg 94%
    01:00 +3°C° 0.2 mm 3 m/s 751 mmHg 95%
    02:00 +3°C° 0.2 mm 3 m/s 750 mmHg 95%
    03:00 +3°C° 0.2 mm 3 m/s 750 mmHg 94%
    04:00 +4°C° 0.2 mm 3 m/s 750 mmHg 94%
    05:00 +4°C° 0.6 mm 4 m/s 750 mmHg 94%
    06:00 +4°C° 0.6 mm 4 m/s 750 mmHg 94%
    07:00 +4°C° 0.6 mm 4 m/s 749 mmHg 93%
    08:00 +4°C° 0.1 mm 4 m/s 749 mmHg 92%
    09:00 +5°C° 0.1 mm 4 m/s 749 mmHg 91%
    10:00 +5°C° 0.1 mm 4 m/s 749 mmHg 89%
    11:00 +5°C° 0.5 mm 5 m/s 749 mmHg 89%
    12:00 +5°C° 0.5 mm 5 m/s 749 mmHg 88%
    13:00 +5°C° 0.5 mm 5 m/s 749 mmHg 88%
    14:00 +5°C° 0.2 mm 5 m/s 749 mmHg 89%
    15:00 +5°C° 0.2 mm 5 m/s 749 mmHg 90%
    16:00 +5°C° 0.2 mm 4 m/s 749 mmHg 91%
    17:00 +5°C° 0.1 mm 5 m/s 749 mmHg 91%
    18:00 +5°C° 0.1 mm 5 m/s 749 mmHg 91%
    19:00 +5°C° 0.1 mm 5 m/s 750 mmHg 91%
    20:00 +5°C° 0.1 mm 5 m/s 750 mmHg 90%
    21:00 +5°C° 0.1 mm 5 m/s 751 mmHg 90%
    22:00 +5°C° 0.1 mm 5 m/s 752 mmHg 89%
    23:00 +3°C° 0.1 mm 5 m/s 752 mmHg 87%

    22 Fevereiro, Sexta-feira

    Tempo Temperatura Precipitação Vento Pressão Humidade
    00:00 +1°C° 0.1 mm 5 m/s 753 mmHg 85%
    01:00 0°C° 0.1 mm 5 m/s 754 mmHg 83%
    02:00 -1°C° 0 mm 5 m/s 755 mmHg 81%
    03:00 -1°C° 0 mm 5 m/s 756 mmHg 78%
    04:00 -2°C° 0 mm 5 m/s 757 mmHg 76%
    05:00 -2°C° 0 mm 4 m/s 758 mmHg 75%
    06:00 -2°C° 0 mm 4 m/s 759 mmHg 74%
    07:00 -3°C° 0 mm 4 m/s 760 mmHg 73%
    08:00 -1°C° 0 mm 3 m/s 761 mmHg 69%
    09:00 -1°C° 0 mm 3 m/s 762 mmHg 65%
    10:00 -1°C° 0 mm 3 m/s 763 mmHg 61%
    11:00 0°C° 0 mm 3 m/s 763 mmHg 58%
    12:00 0°C° 0 mm 3 m/s 763 mmHg 55%
    13:00 +1°C° 0 mm 3 m/s 764 mmHg 51%
    14:00 +1°C° 0 mm 3 m/s 764 mmHg 51%
    15:00 +2°C° 0 mm 2 m/s 764 mmHg 51%
    16:00 +2°C° 0 mm 2 m/s 765 mmHg 51%
    17:00 +1°C° 0 mm 2 m/s 765 mmHg 56%
    18:00 -1°C° 0 mm 2 m/s 765 mmHg 61%
    19:00 -2°C° 0 mm 2 m/s 765 mmHg 66%
    20:00 -1°C° 0 mm 1 m/s 765 mmHg 66%
    21:00 -1°C° 0 mm 1 m/s 766 mmHg 66%
    22:00 -1°C° 0 mm 1 m/s 766 mmHg 66%
    23:00 -1°C° 0 mm 1 m/s 766 mmHg 65%

    23 Fevereiro, Sábado

    Tempo Temperatura Precipitação Vento Pressão Humidade
    00:00 -2°C° 0 mm 0 m/s 766 mmHg 64%
    01:00 -2°C° 0 mm 0 m/s 766 mmHg 63%
    02:00 -2°C° 0 mm 0 m/s 766 mmHg 63%
    03:00 -2°C° 0 mm 0 m/s 765 mmHg 62%
    04:00 -2°C° 0 mm 0 m/s 765 mmHg 62%
    05:00 -2°C° 0 mm 0 m/s 765 mmHg 62%
    06:00 -2°C° 0 mm 0 m/s 765 mmHg 62%
    07:00 -2°C° 0 mm 0 m/s 765 mmHg 62%
    08:00 0°C° 0 mm 1 m/s 765 mmHg 58%
    09:00 +1°C° 0 mm 1 m/s 765 mmHg 55%
    10:00 +2°C° 0 mm 1 m/s 765 mmHg 51%
    11:00 +2°C° 0 mm 2 m/s 765 mmHg 49%
    12:00 +3°C° 0 mm 2 m/s 765 mmHg 48%
    13:00 +3°C° 0 mm 2 m/s 764 mmHg 47%
    14:00 +3°C° 0 mm 2 m/s 764 mmHg 50%
    15:00 +3°C° 0 mm 2 m/s 764 mmHg 54%
    16:00 +3°C° 0 mm 2 m/s 763 mmHg 58%
    17:00 +2°C° 0 mm 2 m/s 763 mmHg 61%
    18:00 +2°C° 0 mm 2 m/s 763 mmHg 65%
    19:00 +2°C° 0 mm 1 m/s 763 mmHg 69%
    20:00 +2°C° 0 mm 1 m/s 763 mmHg 72%
    21:00 +2°C° 0 mm 1 m/s 763 mmHg 75%
    22:00 +2°C° 0 mm 1 m/s 763 mmHg 79%
    23:00 +2°C° 0 mm 1 m/s 763 mmHg 82%

    24 Fevereiro, Domingo

    Tempo Temperatura Precipitação Vento Pressão Humidade
    00:00 +1°C° 0 mm 0 m/s 763 mmHg 84%
    01:00 +1°C° 0 mm 0 m/s 763 mmHg 87%
    02:00 +1°C° 0 mm 0 m/s 763 mmHg 89%
    03:00 +1°C° 0 mm 0 m/s 763 mmHg 90%
    04:00 +1°C° 0 mm 0 m/s 763 mmHg 91%
    05:00 +1°C° 0 mm 0 m/s 763 mmHg 92%
    06:00 +1°C° 0 mm 0 m/s 763 mmHg 92%
    07:00 +1°C° 0 mm 0 m/s 763 mmHg 93%
    08:00 +3°C° 0 mm 1 m/s 763 mmHg 90%
    09:00 +3°C° 0 mm 1 m/s 764 mmHg 88%
    10:00 +4°C° 0 mm 1 m/s 764 mmHg 85%
    11:00 +5°C° 0 mm 1 m/s 764 mmHg 83%
    12:00 +5°C° 0 mm 1 m/s 764 mmHg 80%
    13:00 +5°C° 0 mm 2 m/s 764 mmHg 78%
    14:00 +5°C° 0 mm 2 m/s 764 mmHg 79%
    15:00 +5°C° 0 mm 2 m/s 764 mmHg 79%
    16:00 +5°C° 0 mm 2 m/s 763 mmHg 80%
    17:00 +5°C° 0 mm 2 m/s 763 mmHg 83%
    18:00 +4°C° 0 mm 2 m/s 763 mmHg 85%
    19:00 +4°C° 0 mm 2 m/s 763 mmHg 88%
    20:00 +3°C° 0 mm 2 m/s 763 mmHg 90%
    21:00 +3°C° 0 mm 2 m/s 763 mmHg 92%
    22:00 +3°C° 0 mm 2 m/s 763 mmHg 93%
    23:00 +3°C° 0 mm 2 m/s 763 mmHg 94%
    Mostrar mais